7 * 24
多渠道服务支持
STARLINK-35324是美国SpaceX公司星链(Starlink)星座的成员卫星,于2025年9月29日由猎鹰9号火箭从范登堡太空军基地发射升空,属于星链低轨宽带互联网星座的组网卫星之一。星链星座旨在为全球提供覆盖广泛的高速卫星互联网服务,该卫星采用平板设计、搭载氪工质霍尔推进器,具备自主避撞能力,服役寿命末期将主动离轨再入大气层烧毁,减少空间碎片影响,目前已入轨开展相关组网运行。
美国
(US)
| 数据来源 | 国际轨道数据 |
| 星历时间: | 2026-03-13T15:41:32+0800 1天前 查看轨道信息 |
| 半长轴: | 6853.335km |
| 偏心率: | 0.0001311 |
| 轨道倾角: | 53.161° |
| 近地点辐角 | 68.441° |
| 升交点赤经 | 71.879° |
| 平近点角 | 291.673° |
| 近地点: | 474.299km |
| 远地点: | 476.097km |
| 周期: | 94.105分钟 |
| 每日圈数: | 15.30206 |